GW3433 Weather Reports


time (UTC)temp
C
wind
direction
speed
KPH
gust
KPH
rain 1hr
cm
rain 24hr
cm
rain mn
cm
humidity
%
barometer
mb
20260507125037 5 181 12.9 29.0 0.00 0.03 0.00 89
20260507124016 5 181 11.3 16.1 0.00 0.03 0.00 91
20260507123015 5 181 9.7 16.1 0.00 0.03 0.00 93
20260507122015 4 181 8.0 16.1 0.00 0.03 0.00 93
20260507121016 4 181 9.7 20.9 0.00 0.03 0.00 92
20260507120015 4 181 9.7 16.1 0.00 0.03 0.00 91
20260507115036 4 181 9.7 19.3 0.00 0.03 0.00 91
20260507114015 4 181 9.7 16.1 0.00 0.03 0.00 92
20260507113017 4 181 9.7 16.1 0.00 0.03 0.00 93
20260507112015 4 181 9.7 16.1 0.00 0.03 0.00 93
20260507111015 4 181 9.7 17.7 0.00 0.03 0.00 91
20260507110017 5 181 9.7 17.7 0.00 0.03 0.00 91
20260507105015 4 181 8.0 11.3 0.00 0.03 0.00 93
20260507104036 4 181 9.7 16.1 0.00 0.03 0.00 94
20260507103015 4 181 9.7 16.1 0.00 0.03 0.00 95
20260507102035 4 181 8.0 12.9 0.00 0.03 0.00 96
20260507101016 3 181 8.0 14.5 0.00 0.03 0.00 97
20260507100015 3 181 8.0 11.3 0.00 0.03 0.00 96
20260507095015 3 181 6.4 12.9 0.00 0.03 0.00 96
20260507094016 3 181 8.0 14.5 0.00 0.03 0.00 96
20260507093017 3 181 8.0 11.3 0.00 0.03 0.00 96
20260507092016 4 181 6.4 12.9 0.00 0.03 0.00 96
20260507091035 3 181 8.0 12.9 0.00 0.03 0.00 96
20260507090056 3 181 4.8 8.0 0.00 0.03 0.00 96
20260507085036 3 181 4.8 9.7 0.00 0.03 0.00 97
20260507084036 3 181 4.8 8.0 0.00 0.03 0.00 96
20260507083015 4 181 4.8 9.7 0.00 0.03 0.00 96
20260507082015 4 181 4.8 8.0 0.00 0.03 0.00 96
20260507081035 4 181 4.8 9.7 0.00 0.03 0.00 96
20260507080015 4 181 4.8 8.0 0.00 0.03 0.00 96
20260507075015 4 181 4.8 9.7 0.00 0.03 0.00 96
20260507074015 4 181 3.2 6.4 0.00 0.03 0.00 97
20260507073037 4 181 4.8 9.7 0.00 0.03 0.00 97
20260507072036 4 181 4.8 8.0 0.00 0.03 0.00 97
20260507071016 3 181 4.8 8.0 0.00 0.03 0.00 97
20260507070015 3 181 4.8 8.0 0.00 0.05 0.00 97
20260507065015 3 181 6.4 9.7 0.00 0.05 0.00 96
20260507064015 4 181 6.4 9.7 0.00 0.05 0.00 97
20260507063016 4 181 4.8 11.3 0.00 0.08 0.00 96
20260507062035 4 181 4.8 8.0 0.00 0.08 0.00 96
20260507061015 5 181 4.8 8.0 0.00 0.10 0.00 96
20260507060036 5 181 3.2 8.0 0.00 0.10 0.00 96
20260507055015 5 181 1.6 4.8 0.00 0.10 0.00 96
20260507054016 5 0.0 0.0 0.00 0.10 0.00 96
20260507053015 5 181 1.6 4.8 0.00 0.10 0.00 95
20260507052016 6 181 3.2 6.4 0.00 0.10 0.00 95
20260507051015 6 181 1.6 6.4 0.00 0.10 0.00 95
20260507050038 6 181 4.8 9.7 0.00 0.10 0.00 95
20260507045015 6 181 4.8 6.4 0.00 0.10 0.00 94
20260507044015 6 181 3.2 6.4 0.00 0.10 0.00 93
20260507043015 6 181 3.2 8.0 0.00 0.10 0.00 93
20260507042015 6 181 4.8 9.7 0.00 0.10 0.00 92
20260507041015 6 181 3.2 8.0 0.00 0.10 0.00 91
20260507040056 7 181 4.8 8.0 0.00 0.10 0.00 89
20260507035015 7 181 6.4 9.7 0.00 0.10 0.00 87
20260507034015 7 181 3.2 8.0 0.00 0.10 0.00 85
20260507033015 7 0.0 0.0 0.00 0.10 0.00 85
20260507032015 8 0.0 0.0 0.00 0.10 0.00 84
20260507031016 8 181 3.2 8.0 0.00 0.10 0.00 83
20260507030015 8 0.0 0.0 0.00 0.10 0.00 82
20260507025056 8 0.0 0.0 0.00 0.10 0.00 82
20260507024015 9 0.0 0.0 0.00 0.10 0.00 81
20260507023015 9 0.0 0.0 0.00 0.10 0.00 80
20260507022015 9 0.0 0.0 0.00 0.10 0.00 79
20260507021016 10 0.0 0.0 0.00 0.10 0.00 78
20260507020015 10 0.0 0.0 0.00 0.10 0.00 77
20260507015016 10 0.0 0.0 0.00 0.10 0.00 77
20260507014015 10 0.0 0.0 0.00 0.10 0.00 76
20260507013016 10 0.0 0.0 0.00 0.10 0.00 75
20260507012015 10 0.0 0.0 0.00 0.10 0.00 75
20260507011016 10 0.0 0.0 0.00 0.10 0.00 73
20260507010055 10 0.0 0.0 0.00 0.10 0.00 71
20260507005036 10 0.0 0.0 0.00 0.10 0.00 70
20260507004015 11 0.0 0.0 0.00 0.10 0.00 69
20260507003016 11 0.0 0.0 0.00 0.10 0.00 69
20260507002015 11 0.0 0.0 0.00 0.10 0.00 68
20260507001015 11 0.0 0.0 0.00 0.10 0.00 68
20260507000015 11 0.0 0.0 0.00 0.10 0.00 68
20260506235015 11 0.0 0.0 0.00 0.10 0.10 67
20260506234015 11 0.0 0.0 0.00 0.10 0.10 67
20260506233015 11 0.0 0.0 0.00 0.10 0.10 67
20260506232035 11 0.0 0.0 0.00 0.10 0.10 68
20260506231035 11 0.0 0.0 0.00 0.10 0.10 67
20260506230015 11 181 1.6 8.0 0.00 0.10 0.10 68
20260506225035 11 0.0 0.0 0.00 0.10 0.10 69
20260506224016 10 181 3.2 6.4 0.00 0.10 0.10 69
20260506223015 10 181 1.6 3.2 0.00 0.10 0.10 71
20260506222016 10 181 3.2 6.4 0.00 0.10 0.10 70
20260506221035 11 181 6.4 9.7 0.00 0.10 0.10 70
20260506220015 11 181 4.8 11.3 0.00 0.10 0.10 71
20260506215015 11 181 3.2 8.0 0.00 0.10 0.10 69
20260506214015 10 181 6.4 12.9 0.00 0.10 0.10 73
20260506213015 10 181 6.4 11.3 0.00 0.10 0.10 74
20260506212015 10 181 6.4 12.9 0.00 0.10 0.10 73
20260506211015 10 181 3.2 8.0 0.00 0.10 0.10 72
20260506210016 10 181 4.8 11.3 0.00 0.10 0.10 75
20260506205015 10 181 6.4 11.3 0.00 0.10 0.10 75
20260506204015 10 181 8.0 12.9 0.00 0.10 0.10 77
20260506203015 10 181 6.4 11.3 0.00 0.10 0.10 76
20260506202016 9 181 8.0 12.9 0.00 0.10 0.10 78
20260506201015 9 181 6.4 12.9 0.00 0.10 0.10 77
20260506200015 8 181 3.2 16.1 0.00 0.10 0.10 83
20260506195015 8 0.0 0.0 0.00 0.10 0.10 83
20260506194015 8 181 6.4 12.9 0.00 0.10 0.10 83
20260506193015 8 181 6.4 12.9 0.00 0.10 0.10 81
20260506192015 9 181 4.8 9.7 0.00 0.10 0.10 78
20260506191016 9 181 6.4 14.5 0.00 0.10 0.10 78
20260506190015 9 181 3.2 9.7 0.00 0.10 0.10 81
20260506185015 9 181 1.6 6.4 0.00 0.10 0.10 82
20260506184015 9 181 3.2 8.0 0.00 0.10 0.10 80
20260506183036 9 181 3.2 6.4 0.00 0.10 0.10 81
20260506182015 8 181 3.2 9.7 0.00 0.10 0.10 85
20260506181036 8 181 4.8 8.0 0.00 0.10 0.10 89
20260506180016 8 181 4.8 9.7 0.00 0.10 0.10 85
20260506175035 7 181 8.0 14.5 0.00 0.10 0.10 89
20260506174015 7 181 8.0 12.9 0.00 0.10 0.10 91
20260506173015 7 181 8.0 12.9 0.00 0.10 0.10 92
20260506172015 7 181 9.7 16.1 0.00 0.10 0.10 93
20260506171015 7 181 9.7 17.7 0.00 0.10 0.10 93
20260506170015 7 181 6.4 12.9 0.00 0.10 0.10 94
20260506165015 6 181 8.0 14.5 0.00 0.10 0.10 95
20260506164016 7 181 9.7 16.1 0.00 0.10 0.10 95
20260506163015 7 181 9.7 16.1 0.00 0.10 0.10 96
20260506162016 6 181 9.7 14.5 0.00 0.10 0.10 96
20260506161015 6 181 8.0 14.5 0.00 0.10 0.10 97
20260506160037 6 181 9.7 16.1 0.00 0.10 0.10 96
20260506155015 6 181 9.7 14.5 0.00 0.10 0.10 97
20260506154015 6 181 9.7 14.5 0.00 0.10 0.10 97
20260506153036 6 181 8.0 14.5 0.03 0.10 0.10 97
20260506152016 6 181 9.7 14.5 0.03 0.10 0.10 97
20260506151016 5 181 9.7 16.1 0.03 0.10 0.10 97
20260506150036 5 181 9.7 14.5 0.03 0.10 0.10 97
20260506145015 5 181 11.3 16.1 0.03 0.10 0.10 97
20260506144015 5 181 9.7 14.5 0.03 0.10 0.10 97
20260506143015 5 181 9.7 14.5 0.00 0.08 0.08 96
20260506142035 6 181 8.0 14.5 0.00 0.08 0.08 96
20260506141015 6 181 8.0 14.5 0.00 0.08 0.08 96
20260506140015 6 181 8.0 12.9 0.00 0.08 0.08 96
20260506135016 6 181 8.0 12.9 0.00 0.08 0.08 97
20260506134015 6 181 6.4 11.3 0.00 0.08 0.08 97
20260506133016 6 181 6.4 14.5 0.00 0.08 0.08 97
20260506132015 6 181 6.4 12.9 0.00 0.08 0.08 97
20260506131015 5 181 6.4 12.9 0.00 0.08 0.08 97
20260506130015 5 181 6.4 12.9 0.00 0.08 0.08 97